Location: Newark
(50.4348°N, 30.5552°E)
Time: 14:35:04
(UTC+00:00)

Vanguard 3 - Pass Details

Date: 25 January 2020
Orbit: 508 x 3263 km, 33.3° (Epoch: 28 February)

Event Time Altitude Azimuth Distance (km) Brightness Sun altitude
Rises 15:57:20 0° 234° (SW) 7,095 13.4 -12.6°
Reaches altitude 10° 16:02:28 10° 228° (SW) 6,177 12.6 -13.3°
Maximum altitude 16:19:44 40° 169° (S) 3,948 10.6 -16.0°
Enters shadow 16:31:54 15° 111° (ESE) 4,708 10.5 -17.9°
